Location: Bear Trap Landing
(45.2437°N, 67.7928°W)
Time: 23:25:13
(UTC+00:00)

Envisat - Visible Passes

Search period start: 05 March 2021 00:00
Search period end: 15 March 2021 00:00
Orbit: 764 x 766 km, 98.1° (Epoch: 05 March)

Date Brightness Start Highest point End Pass type
(mag) Time Alt. Az. Time Alt. Az. Time Alt. Az.
05 Mar 6.1 08:49:32 10° ENE 08:51:56 13° E 08:54:19 10° ESE visible
05 Mar 3.0 10:26:28 10° NNE 10:31:34 81° WNW 10:36:39 10° SSW visible
06 Mar 4.1 09:49:47 10° NNE 09:54:42 48° E 09:59:35 10° S visible
07 Mar 5.5 09:13:38 10° NE 09:17:38 23° E 09:21:35 10° SE visible
08 Mar 6.4 08:39:52 10° E 08:40:20 10° E 08:40:49 10° E visible
08 Mar 3.2 10:15:03 10° NNE 10:20:09 82° ESE 10:25:14 10° SSW visible
09 Mar 4.6 09:38:29 10° NNE 09:43:13 38° E 09:47:55 10° SSE visible
10 Mar 5.9 09:02:37 10° NE 09:06:05 18° E 09:09:31 10° SE visible
11 Mar 3.5 10:03:38 10° NNE 10:08:43 65° ESE 10:13:45 10° S visible
12 Mar 5.0 09:27:14 10° NNE 09:31:43 30° E 09:36:10 10° SSE visible
13 Mar 6.0 08:51:48 10° NE 08:54:31 14° E 08:57:14 10° ESE visible
14 Mar 4.0 09:52:16 10° NNE 09:57:15 52° E 10:02:11 10° S visible
